Find Starlink 35281

NORAD ID: 65824 Int'l Des: 2025-221 Owner: SPXS Country: US Constellation: starlink operational
LEOCIRCULAR

リアルタイム位置

3D地球を読み込み中...

Starlink 35281について

説明を読み込み中...

次回通過

Passes for default location (London). Set your location on the main map for personalized predictions.

高度履歴

Loading altitude history...

軌道要素

1 65824U 25221B 26106.73928209 .00010501 00000-0 36624-3 0 9993
2 65824 53.1585 271.9863 0001138 87.1176 272.9955 15.30194392 31902
Epoch: Apr 16, 2026 • Age: 16 hours

現在のステータス

高度 481.4 km
速度 7.62 km/s
衛星直下点 -21.05°S, 92.75°W
打ち上げ日 Sep 29, 2025
運用期間 0.5 years
タイプ internet

技術仕様

分類 Payload
質量 575.00 kg
乾燥質量 530.00 kg
総質量 575.00 kg
長さ 0.30 m
直径 4.10 m
スパン 29.00 m
形状 Box + pan
製造者 SPXS
バスタイプ Starlink V2MO
フェーズステータス In Orbit
所有者/国 SPXS/US

Most Searched